DAL1788 MUHA-KMIA

Flight info

Callsign DAL1788
Flight time 0h 50m
Altitude 25000
Route EPMAR3 MAXIM SNDBR3
Aircraft B738/M-SDE2E3FGHIRWXY/LB1

Departure

Time 2026-05-03 21:59
Airport José Martí International Airport (MUHA)

Arrival

Time 2026-05-03 22:49
Airport Miami International Airport (KMIA)
Time Latitude Longitude Altitude Speed Heading
2026-05-03 21:27 22.99640 -82.40730 220 ft 0 kts 52°
2026-05-03 21:40 22.99634 -82.40738 216 ft 4 kts 53°
2026-05-03 21:41 22.99619 -82.40762 217 ft 4 kts 67°
2026-05-03 21:41 22.99615 -82.40787 218 ft 4 kts 121°
2026-05-03 21:41 22.99622 -82.40796 215 ft 1 kts 146°
2026-05-03 21:41 22.99623 -82.40797 215 ft 0 kts 146°
2026-05-03 21:45 22.99623 -82.40796 215 ft 0 kts 146°
2026-05-03 21:45 22.99602 -82.40781 217 ft 8 kts 146°
2026-05-03 21:46 22.99554 -82.40743 215 ft 9 kts 146°
2026-05-03 21:46 22.99504 -82.40706 215 ft 9 kts 145°
2026-05-03 21:46 22.99455 -82.40723 218 ft 9 kts 229°
2026-05-03 21:46 22.99418 -82.40772 218 ft 8 kts 232°
2026-05-03 21:47 22.99384 -82.40822 222 ft 8 kts 234°
2026-05-03 21:47 22.99352 -82.40871 218 ft 8 kts 234°
2026-05-03 21:47 22.99324 -82.40913 221 ft 0 kts 226°
2026-05-03 21:47 22.99307 -82.40904 219 ft 6 kts 138°
2026-05-03 21:48 22.99268 -82.40861 215 ft 8 kts 137°
2026-05-03 21:48 22.99225 -82.40823 215 ft 8 kts 143°
2026-05-03 21:48 22.99177 -82.40837 215 ft 8 kts 227°
2026-05-03 21:48 22.99142 -82.40884 220 ft 8 kts 231°
2026-05-03 21:49 22.99105 -82.40941 218 ft 10 kts 236°
2026-05-03 21:49 22.99060 -82.41008 218 ft 12 kts 234°
2026-05-03 21:49 22.99007 -82.41088 215 ft 14 kts 234°
2026-05-03 21:49 22.98948 -82.41178 225 ft 15 kts 234°
2026-05-03 21:50 22.98886 -82.41272 219 ft 15 kts 235°
2026-05-03 21:50 22.98822 -82.41369 222 ft 17 kts 234°
2026-05-03 21:50 22.98735 -82.41499 216 ft 24 kts 233°
2026-05-03 21:50 22.98636 -82.41648 215 ft 24 kts 234°
2026-05-03 21:51 22.98541 -82.41789 220 ft 23 kts 232°
2026-05-03 21:51 22.98453 -82.41925 217 ft 22 kts 235°
2026-05-03 21:51 22.98364 -82.42058 215 ft 21 kts 232°
2026-05-03 21:51 22.98282 -82.42190 217 ft 21 kts 231°
2026-05-03 21:52 22.98200 -82.42306 220 ft 13 kts 234°
2026-05-03 21:52 22.98147 -82.42386 220 ft 13 kts 235°
2026-05-03 21:52 22.98096 -82.42464 218 ft 13 kts 234°
2026-05-03 21:52 22.98045 -82.42539 219 ft 12 kts 232°
2026-05-03 21:53 22.97983 -82.42565 218 ft 7 kts 166°
2026-05-03 21:53 22.97964 -82.42554 217 ft 0 kts 147°
2026-05-03 21:56 22.97961 -82.42552 217 ft 1 kts 147°
2026-05-03 21:57 22.97949 -82.42543 215 ft 3 kts 146°
2026-05-03 21:57 22.97914 -82.42516 220 ft 9 kts 144°
2026-05-03 21:57 22.97889 -82.42459 219 ft 9 kts 76°
2026-05-03 21:57 22.97917 -82.42409 224 ft 6 kts 54°
2026-05-03 21:58 22.97939 -82.42376 218 ft 5 kts 54°
2026-05-03 21:58 22.98064 -82.42188 219 ft 66 kts 54°
2026-05-03 21:58 22.98303 -82.41829 217 ft 111 kts 54°
2026-05-03 21:58 22.98871 -82.40976 245 ft 162 kts 54°
2026-05-03 21:59 22.99517 -82.39949 737 ft 171 kts 51°
2026-05-03 21:59 23.00252 -82.38845 1185 ft 188 kts 53°
2026-05-03 21:59 23.01055 -82.37640 1613 ft 207 kts 52°
2026-05-03 21:59 23.01924 -82.36342 2083 ft 220 kts 53°
2026-05-03 22:00 23.02832 -82.34967 2491 ft 231 kts 54°
2026-05-03 22:00 23.04121 -82.33001 2847 ft 254 kts 54°
2026-05-03 22:00 23.04841 -82.31920 3044 ft 267 kts 54°
2026-05-03 22:00 23.05951 -82.30266 3692 ft 271 kts 54°
2026-05-03 22:01 23.07063 -82.28599 4393 ft 275 kts 54°
2026-05-03 22:01 23.08184 -82.26911 5115 ft 277 kts 54°
2026-05-03 22:01 23.09315 -82.25207 5820 ft 279 kts 54°
2026-05-03 22:01 23.10456 -82.23486 6535 ft 282 kts 54°
2026-05-03 22:02 23.11591 -82.21772 7215 ft 285 kts 54°
2026-05-03 22:02 23.12761 -82.20019 7902 ft 287 kts 51°
2026-05-03 22:02 23.14285 -82.18634 8584 ft 288 kts 22°
2026-05-03 22:02 23.16242 -82.18203 9373 ft 283 kts 354°
2026-05-03 22:03 23.18137 -82.18621 10113 ft 282 kts 338°
2026-05-03 22:03 23.19982 -82.19363 10810 ft 284 kts 336°
2026-05-03 22:03 23.21835 -82.20149 11486 ft 288 kts 336°
2026-05-03 22:03 23.23720 -82.20937 12211 ft 291 kts 336°
2026-05-03 22:04 23.25623 -82.21715 12978 ft 293 kts 336°
2026-05-03 22:04 23.27553 -82.22497 13642 ft 302 kts 336°
2026-05-03 22:04 23.29598 -82.23326 13847 ft 325 kts 336°
2026-05-03 22:04 23.31790 -82.24214 13994 ft 347 kts 337°
2026-05-03 22:05 23.34127 -82.25153 14135 ft 368 kts 337°
2026-05-03 22:05 23.36595 -82.26141 14304 ft 385 kts 337°
2026-05-03 22:05 23.39137 -82.27163 14708 ft 393 kts 337°
2026-05-03 22:05 23.41710 -82.28196 15282 ft 395 kts 337°
2026-05-03 22:06 23.44303 -82.29238 15892 ft 397 kts 337°
2026-05-03 22:06 23.46900 -82.30285 16453 ft 400 kts 337°
2026-05-03 22:06 23.49524 -82.31345 16991 ft 404 kts 337°
2026-05-03 22:06 23.52169 -82.32419 17528 ft 407 kts 336°
2026-05-03 22:07 23.54832 -82.33500 18055 ft 410 kts 336°
2026-05-03 22:07 23.57486 -82.34575 18535 ft 414 kts 336°
2026-05-03 22:07 23.60196 -82.35676 18956 ft 417 kts 335°
2026-05-03 22:07 23.62925 -82.36785 19401 ft 420 kts 336°
2026-05-03 22:08 23.65672 -82.37897 19864 ft 422 kts 335°
2026-05-03 22:08 23.68434 -82.39015 20300 ft 425 kts 335°
2026-05-03 22:08 23.71213 -82.40142 20735 ft 427 kts 335°
2026-05-03 22:08 23.74003 -82.41277 21184 ft 429 kts 335°
2026-05-03 22:09 23.76806 -82.42418 21615 ft 431 kts 334°
2026-05-03 22:09 23.79624 -82.43566 22023 ft 434 kts 334°
2026-05-03 22:09 23.82463 -82.44722 22414 ft 436 kts 334°
2026-05-03 22:10 23.88189 -82.47052 23204 ft 441 kts 334°
2026-05-03 22:10 23.91105 -82.48242 23594 ft 444 kts 333°
2026-05-03 22:10 23.94006 -82.49428 23859 ft 447 kts 333°
2026-05-03 22:10 23.96932 -82.50622 24172 ft 449 kts 333°
2026-05-03 22:11 23.99914 -82.51683 24501 ft 458 kts 343°
2026-05-03 22:11 24.03149 -82.51759 24839 ft 475 kts
2026-05-03 22:11 24.06398 -82.50875 24986 ft 490 kts 16°
2026-05-03 22:11 24.09442 -82.49131 25003 ft 500 kts 32°
2026-05-03 22:12 24.12042 -82.46582 24998 ft 504 kts 47°
2026-05-03 22:12 24.14048 -82.43430 24996 ft 507 kts 62°
2026-05-03 22:12 24.15287 -82.39810 25010 ft 509 kts 76°
2026-05-03 22:12 24.16066 -82.36085 25001 ft 509 kts 79°
2026-05-03 22:13 24.16838 -82.32300 24989 ft 509 kts 75°
2026-05-03 22:13 24.18098 -82.28632 25011 ft 508 kts 65°
2026-05-03 22:13 24.19635 -82.25159 25014 ft 507 kts 62°
2026-05-03 22:13 24.21235 -82.21762 25007 ft 508 kts 61°
2026-05-03 22:14 24.22849 -82.18325 24999 ft 508 kts 62°
2026-05-03 22:14 24.24437 -82.14863 24997 ft 509 kts 63°
2026-05-03 22:14 24.25997 -82.11375 25000 ft 509 kts 63°
2026-05-03 22:14 24.27532 -82.07879 25013 ft 510 kts 63°
2026-05-03 22:15 24.29057 -82.04367 24995 ft 510 kts 64°
2026-05-03 22:15 24.30578 -82.00853 24999 ft 510 kts 64°
2026-05-03 22:15 24.32100 -81.97342 25003 ft 510 kts 64°
2026-05-03 22:15 24.33621 -81.93835 25004 ft 510 kts 64°
2026-05-03 22:16 24.35142 -81.90329 25003 ft 509 kts 64°
2026-05-03 22:16 24.36665 -81.86819 25005 ft 509 kts 64°
2026-05-03 22:16 24.38185 -81.83315 25006 ft 509 kts 64°
2026-05-03 22:16 24.39704 -81.79809 25004 ft 509 kts 64°
2026-05-03 22:17 24.40982 -81.76856 25001 ft 509 kts 64°
2026-05-03 22:17 24.42500 -81.73348 25000 ft 509 kts 64°
2026-05-03 22:17 24.44013 -81.69847 25002 ft 509 kts 64°
2026-05-03 22:17 24.45568 -81.66361 24998 ft 508 kts 59°
2026-05-03 22:18 24.47578 -81.63193 25019 ft 504 kts 49°
2026-05-03 22:18 24.49826 -81.60249 25004 ft 503 kts 46°
2026-05-03 22:18 24.52135 -81.57360 25002 ft 503 kts 46°
2026-05-03 22:18 24.54434 -81.54472 24999 ft 503 kts 46°
2026-05-03 22:19 24.56707 -81.51553 24944 ft 504 kts 47°
2026-05-03 22:19 24.58993 -81.48559 24734 ft 518 kts 48°
2026-05-03 22:19 24.61311 -81.45481 24540 ft 528 kts 48°
2026-05-03 22:19 24.63651 -81.42351 24351 ft 529 kts 49°
2026-05-03 22:20 24.65975 -81.39238 24151 ft 524 kts 49°
2026-05-03 22:20 24.68283 -81.36155 23964 ft 519 kts 48°
2026-05-03 22:20 24.70574 -81.33105 23772 ft 516 kts 48°
2026-05-03 22:20 24.72859 -81.30062 23588 ft 514 kts 48°
2026-05-03 22:21 24.75125 -81.27038 23494 ft 511 kts 49°
2026-05-03 22:21 24.77377 -81.24019 23448 ft 511 kts 49°
2026-05-03 22:21 24.79644 -81.20985 23403 ft 516 kts 49°
2026-05-03 22:21 24.81933 -81.17928 23345 ft 516 kts 49°
2026-05-03 22:22 24.84211 -81.14888 23288 ft 515 kts 48°
2026-05-03 22:22 24.86676 -81.12058 23205 ft 510 kts 35°
2026-05-03 22:22 24.89678 -81.10070 23170 ft 501 kts 21°
2026-05-03 22:22 24.92852 -81.08518 23124 ft 499 kts 19°
2026-05-03 22:23 24.96063 -81.07004 22668 ft 505 kts 19°
2026-05-03 22:23 24.99228 -81.05514 22073 ft 496 kts 19°
2026-05-03 22:23 25.02360 -81.04015 21503 ft 486 kts 20°
2026-05-03 22:23 25.05437 -81.02520 20945 ft 480 kts 20°
2026-05-03 22:24 25.08481 -81.01026 20417 ft 479 kts 20°
2026-05-03 22:24 25.11523 -80.99525 19841 ft 478 kts 20°
2026-05-03 22:24 25.14549 -80.98026 19269 ft 476 kts 20°
2026-05-03 22:24 25.17546 -80.96539 18653 ft 469 kts 20°
2026-05-03 22:25 25.20503 -80.95070 18020 ft 462 kts 20°
2026-05-03 22:25 25.23424 -80.93618 17331 ft 457 kts 21°
2026-05-03 22:25 25.26315 -80.92183 16661 ft 453 kts 20°
2026-05-03 22:25 25.29184 -80.90761 15996 ft 448 kts 21°
2026-05-03 22:26 25.32010 -80.89358 15352 ft 442 kts 21°
2026-05-03 22:26 25.34800 -80.87979 14715 ft 437 kts 21°
2026-05-03 22:26 25.37555 -80.86615 14122 ft 432 kts 21°
2026-05-03 22:26 25.40254 -80.85294 13481 ft 427 kts 20°
2026-05-03 22:27 25.42979 -80.84032 12800 ft 422 kts 19°
2026-05-03 22:27 25.45690 -80.82819 12132 ft 417 kts 17°
2026-05-03 22:27 25.48409 -80.81761 11502 ft 412 kts 15°
2026-05-03 22:27 25.51114 -80.80772 10994 ft 406 kts 15°
2026-05-03 22:28 25.53780 -80.79807 10547 ft 400 kts 15°
2026-05-03 22:28 25.56415 -80.78837 10119 ft 397 kts 15°
2026-05-03 22:28 25.59010 -80.77862 9745 ft 391 kts 16°
2026-05-03 22:28 25.61545 -80.76903 9662 ft 377 kts 16°
2026-05-03 22:29 25.63940 -80.75837 9540 ft 368 kts 28°
2026-05-03 22:29 25.65877 -80.74055 9451 ft 358 kts 47°
2026-05-03 22:29 25.67386 -80.71922 9363 ft 346 kts 52°
2026-05-03 22:29 25.68790 -80.69814 9279 ft 331 kts 52°
2026-05-03 22:30 25.70126 -80.67807 9184 ft 315 kts 52°
2026-05-03 22:30 25.71399 -80.65903 9041 ft 298 kts 52°
2026-05-03 22:30 25.72606 -80.64118 8643 ft 283 kts 51°
2026-05-03 22:30 25.73779 -80.62397 8132 ft 276 kts 51°
2026-05-03 22:31 25.74925 -80.60720 7706 ft 266 kts 51°
2026-05-03 22:31 25.76019 -80.59118 7341 ft 257 kts 51°
2026-05-03 22:31 25.77081 -80.57544 6934 ft 253 kts 54°
2026-05-03 22:31 25.77740 -80.55744 6361 ft 255 kts 84°
2026-05-03 22:32 25.77800 -80.53855 6254 ft 233 kts 91°
2026-05-03 22:32 25.77806 -80.52124 6120 ft 215 kts 90°
2026-05-03 22:32 25.77851 -80.50498 5738 ft 210 kts 89°
2026-05-03 22:32 25.77910 -80.48881 5249 ft 209 kts 88°
2026-05-03 22:33 25.77969 -80.47280 4725 ft 207 kts 89°
2026-05-03 22:33 25.78041 -80.45685 4202 ft 205 kts 87°
2026-05-03 22:33 25.78100 -80.44122 3840 ft 198 kts 88°
2026-05-03 22:33 25.78165 -80.42611 3371 ft 198 kts 88°
2026-05-03 22:34 25.78224 -80.41104 2963 ft 193 kts 88°
2026-05-03 22:34 25.78280 -80.39680 2599 ft 187 kts 87°
2026-05-03 22:34 25.78340 -80.38242 2143 ft 186 kts 87°
2026-05-03 22:34 25.78401 -80.36822 1734 ft 181 kts 86°
2026-05-03 22:35 25.78449 -80.35449 1298 ft 178 kts 86°
2026-05-03 22:35 25.78530 -80.34100 841 ft 176 kts 84°
2026-05-03 22:35 25.78590 -80.32771 558 ft 170 kts 88°
2026-05-03 22:35 25.78601 -80.31282 893 ft 206 kts 89°
2026-05-03 22:36 25.78629 -80.29795 1484 ft 182 kts 88°
2026-05-03 22:36 25.78632 -80.28407 1733 ft 187 kts 97°
2026-05-03 22:36 25.78201 -80.26974 1875 ft 205 kts 112°
2026-05-03 22:36 25.77694 -80.25462 2113 ft 212 kts 109°
2026-05-03 22:37 25.77232 -80.23885 2371 ft 212 kts 107°
2026-05-03 22:37 25.76822 -80.22331 2622 ft 213 kts 106°
2026-05-03 22:37 25.76408 -80.20651 2885 ft 235 kts 105°
2026-05-03 22:37 25.75917 -80.18908 3173 ft 240 kts 119°
2026-05-03 22:38 25.74748 -80.17558 3060 ft 257 kts 155°
2026-05-03 22:38 25.72998 -80.17192 2837 ft 260 kts 189°
2026-05-03 22:38 25.71409 -80.18020 2724 ft 250 kts 227°
2026-05-03 22:38 25.70676 -80.19638 2944 ft 234 kts 263°
2026-05-03 22:39 25.70665 -80.21426 2983 ft 233 kts 272°
2026-05-03 22:39 25.70741 -80.23233 2996 ft 235 kts 273°
2026-05-03 22:39 25.70820 -80.25056 2992 ft 236 kts 272°
2026-05-03 22:39 25.70905 -80.26877 3005 ft 238 kts 273°
2026-05-03 22:40 25.70992 -80.28715 2999 ft 239 kts 271°
2026-05-03 22:40 25.70862 -80.30552 3000 ft 239 kts 262°
2026-05-03 22:40 25.70646 -80.32415 3004 ft 246 kts 262°
2026-05-03 22:40 25.70433 -80.34291 2993 ft 246 kts 263°
2026-05-03 22:41 25.70219 -80.36187 3021 ft 249 kts 263°
2026-05-03 22:41 25.70030 -80.38104 3005 ft 252 kts 265°
2026-05-03 22:41 25.69925 -80.39385 2997 ft 253 kts 264°
2026-05-03 22:41 25.69725 -80.41316 2985 ft 250 kts 263°
2026-05-03 22:42 25.69446 -80.43768 2980 ft 233 kts 263°
2026-05-03 22:42 25.69255 -80.45508 2984 ft 221 kts 265°
2026-05-03 22:42 25.69515 -80.47102 2994 ft 216 kts 294°
2026-05-03 22:42 25.69933 -80.48121 2996 ft 215 kts 293°
2026-05-03 22:43 25.70727 -80.50082 2995 ft 215 kts 292°
2026-05-03 22:43 25.71142 -80.51098 3005 ft 215 kts 293°
2026-05-03 22:43 25.71777 -80.52601 2998 ft 216 kts 300°
2026-05-03 22:43 25.72923 -80.53644 2996 ft 219 kts 342°
2026-05-03 22:44 25.74408 -80.53810 3000 ft 222 kts 358°
2026-05-03 22:44 25.75947 -80.53911 3011 ft 228 kts 352°
2026-05-03 22:44 25.77492 -80.54071 2986 ft 228 kts
2026-05-03 22:44 25.78907 -80.53394 3003 ft 222 kts 45°
2026-05-03 22:45 25.79570 -80.51872 3021 ft 224 kts 87°
2026-05-03 22:45 25.79273 -80.50153 3028 ft 233 kts 111°
2026-05-03 22:45 25.78674 -80.48463 2985 ft 235 kts 112°
2026-05-03 22:45 25.78085 -80.46777 2857 ft 238 kts 107°
2026-05-03 22:46 25.78090 -80.44911 2443 ft 240 kts 81°
2026-05-03 22:46 25.78208 -80.43109 2100 ft 227 kts 90°
2026-05-03 22:46 25.78217 -80.41398 1801 ft 216 kts 88°
2026-05-03 22:46 25.78275 -80.39779 1535 ft 204 kts 87°
2026-05-03 22:47 25.78343 -80.38254 1280 ft 192 kts 86°
2026-05-03 22:47 25.78397 -80.36815 1041 ft 181 kts 87°
2026-05-03 22:47 25.78452 -80.35485 858 ft 164 kts 86°
2026-05-03 22:47 25.78511 -80.34282 613 ft 152 kts 85°
2026-05-03 22:48 25.78548 -80.33132 429 ft 147 kts 88°
2026-05-03 22:48 25.78591 -80.32021 248 ft 140 kts 87°
2026-05-03 22:48 25.78634 -80.30966 43 ft 134 kts 86°
2026-05-03 22:48 25.78674 -80.30016 15 ft 110 kts 87°
2026-05-03 22:49 25.78701 -80.29333 17 ft 67 kts 87°
2026-05-03 22:49 25.78720 -80.28926 16 ft 36 kts 83°
2026-05-03 22:49 25.78779 -80.28730 16 ft 13 kts 52°
2026-05-03 22:49 25.78800 -80.28706 15 ft 1 kts 43°
2026-05-03 22:50 25.78811 -80.28694 15 ft 3 kts 44°
2026-05-03 22:50 25.78831 -80.28673 14 ft 4 kts 44°
2026-05-03 22:50 25.78853 -80.28650 15 ft 4 kts 44°
2026-05-03 22:50 25.78882 -80.28621 16 ft 7 kts 41°
2026-05-03 22:51 25.78934 -80.28578 16 ft 11 kts 36°
2026-05-03 22:51 25.79000 -80.28526 16 ft 13 kts 34°
2026-05-03 22:51 25.79075 -80.28469 15 ft 13 kts 31°
2026-05-03 22:51 25.79152 -80.28419 17 ft 13 kts 28°
2026-05-03 22:52 25.79231 -80.28378 19 ft 12 kts 44°
2026-05-03 22:52 25.79293 -80.28314 21 ft 12 kts 43°
2026-05-03 22:52 25.79350 -80.28250 20 ft 12 kts 57°
2026-05-03 22:52 25.79370 -80.28166 20 ft 10 kts 75°
2026-05-03 22:53 25.79384 -80.28123 20 ft 6 kts 66°
2026-05-03 22:53 25.79389 -80.28086 21 ft 4 kts 123°
2026-05-03 22:53 25.79365 -80.28078 22 ft 4 kts 167°
2026-05-03 22:53 25.79342 -80.28072 21 ft 0 kts 167°